[[{"header":{"parameterUnit":"m.s-1","parameterCategory":2,"la1":30.2991,"la2":30.254,"lo1":-89.0895,"lo2":-89.0444,"dy":0.0017,"dx":0.0017,"nx":28,"ny":28,"refTime":"2025-03-07T09:00:00:Z","depth":"0","parameterNumber":2,"parameterNumberName":"U-component_of_CURRENTS"},"data":[0,0,0,0,0,0,0,0,0,0,0,0,0,0,0,0,0,0,0,0,0,0,0,0,0,0,0,0,0,0,0,0,0,0,0,0,0,0,0,0,0,0,0,0,0,0,0,0,0,0,0,0,0,0,0,0,0,0,0.2396,0.2395,0,0.2316,0.2314,0.2313,0.2253,0.2253,0.2253,0.2253,0.2091,0.2087,0.2082,0,0,0,0,0,0,0,0,0,0,0,0,0,0.2465,0.2464,0.2396,0.2395,0.2394,0.2316,0.2314,0.2313,0.2253,0.2253,0.2253,0.2253,0.2092,0.2087,0.2082,0,0,0,0,0,0,0,0,0,0,0,0,0,0.2411,0.2464,0.2396,0.2359,0.2355,0.2316,0.2314,0.2312,0.2253,0.2253,0.2253,0.2253,0.2094,0.2088,0.2081,0.2044,0,0,0.2062,0.2059,0,0,0,0,0,0,0,0,0.2414,0.2408,0.2365,0.2362,0.2357,0.2299,0.228,0.222,0.2254,0.2287,0.2253,0.2253,0.2156,0.2145,0.2124,0.2037,0.203,0.2061,0.2057,0.2055,0.2053,0,0,0,0,0,0,0,0.2418,0.2411,0.2359,0.2365,0.236,0.2336,0.2328,0.2268,0.2218,0.2284,0.2281,0.228,0.2153,0.213,0.2119,0.2027,0.2061,0.2056,0.2052,0.2049,0.1957,0.1959,0,0,0,0,0,0,0.2439,0.2414,0.2362,0.2357,0.2391,0.2336,0.2326,0.2314,0.222,0.2208,0.228,0.2277,0.2141,0.2127,0.2113,0.2121,0.2055,0.2049,0.2045,0.1956,0.1958,0.1959,0,0,0,0,0,0,0.2441,0.2435,0.2365,0.2389,0.2379,0.2335,0.2321,0.2312,0.2297,0.2219,0.2204,0.2276,0.2141,0.2122,0.2081,0.2112,0.2046,0.204,0.1954,0.1956,0.1958,0.21,0,0,0,0,0,0,0.2443,0.2435,0.2434,0.239,0.2378,0.2355,0.2322,0.2311,0.2299,0.2294,0.221,0.2194,0.2139,0.2091,0.2075,0.2102,0.2035,0.1953,0.1955,0.1958,0.2094,0.2107,0.2118,0,0,0,0,0,0.2445,0.2446,0.2434,0.2428,0.2377,0.2356,0.2348,0.2313,0.2299,0.2297,0.2249,0.2197,0.2096,0.2087,0.2067,0.2094,0.1951,0.1954,0.1957,0.2088,0.2104,0.2118,0,0,0,0,0,0,0.2466,0.2439,0.2425,0.2415,0.2395,0.2348,0.2344,0.2323,0.2283,0.2278,0.2204,0.2185,0.2169,0.2107,0.2099,0.2076,0.2019,0.2019,0.2125,0.2139,0.2151,0.2157,0.203,0,0,0,0,0,0.2475,0.2471,0.2441,0.2433,0.2428,0.2389,0.2377,0.2356,0.2318,0.23,0.2245,0.2193,0.2165,0.2134,0.2092,0.2063,0.2052,0.2071,0.2083,0.2094,0.2086,0.2111,0.2125,0.1969,0.1969,0.1969,0,0,0.2478,0.2466,0.246,0.2439,0.2418,0.241,0.238,0.237,0.2366,0.2287,0.2262,0.2232,0.217,0.2156,0.2142,0.2106,0.2143,0.2098,0.2107,0.2093,0.2116,0.2131,0.2145,0.1971,0.1971,0.1971,0,0,0.2485,0.2476,0.2475,0.2468,0.2454,0.2434,0.2439,0.2402,0.2392,0.2367,0.2332,0.2326,0.2244,0.223,0.2207,0.2255,0.2215,0.224,0.2291,0.2317,0.2331,0.2342,0.2398,0.2413,0.2235,0.2236,0.2236,0,0.2487,0.2476,0.2472,0.2473,0.2466,0.2451,0.2445,0.244,0.2396,0.2389,0.2374,0.2321,0.2284,0.2285,0.2315,0.2284,0.2296,0.2246,0.2336,0.2346,0.2356,0.241,0.2425,0.2243,0.2242,0.2241,0.2241,0,0.2487,0.2485,0.2488,0.2483,0.2484,0.2477,0.2476,0.2476,0.2465,0.245,0.2453,0.2424,0.2385,0.2397,0.2367,0.2417,0.2409,0.2363,0.2305,0.2381,0.2433,0.2446,0.2253,0.2251,0.2249,0.2247,0,0,0.2454,0.2479,0.2476,0.2478,0.2484,0.2479,0.25,0.2497,0.2503,0.2498,0.2501,0.2507,0.2497,0.2472,0.2457,0.2491,0.2603,0.246,0.2458,0.2528,0.2689,0.2543,0.2543,0.2574,0.2575,0.2577,0.2718,0,0.2441,0.2448,0.2464,0.2468,0.2468,0.2481,0.2496,0.2507,0.2511,0.2516,0.2532,0.2526,0.2524,0.2519,0.2561,0.2566,0.2634,0.257,0.2592,0.2594,0.2464,0.2551,0.2312,0.2403,0.2731,0.2733,0.2734,0,0.2419,0.243,0.2432,0.2457,0.2457,0.2464,0.2481,0.2494,0.2524,0.253,0.255,0.2548,0.2597,0.2586,0.2672,0.2628,0.2681,0.2707,0.2711,0.2522,0.2468,0.2368,0.2413,0.2244,0.2753,0.2752,0.275,0,0.2383,0.24,0.2401,0.2407,0.2439,0.2446,0.2458,0.2489,0.2503,0.2538,0.2543,0.2592,0.26,0.2672,0.2721,0.2704,0.282,0.2792,0.2733,0.2725,0.2494,0.246,0.2374,0.2894,0.2894,0.2893,0.2893,0,0.2353,0.2352,0.2385,0.2387,0.2395,0.2423,0.2436,0.246,0.2492,0.251,0.2543,0.2562,0.262,0.2677,0.2745,0.2764,0.2842,0.2758,0.2745,0.2539,0.2509,0.2322,0.2286,0.2898,0.2897,0.2896,0.2895,0,0.2315,0.2334,0.2341,0.2371,0.2381,0.2387,0.2421,0.2438,0.2463,0.249,0.2501,0.2545,0.2603,0.2675,0.2781,0.2758,0.2688,0.2823,0.2588,0.254,0.2255,0.2236,0.2133,0.2093,0.2761,0.2758,0.2755,0,0.2291,0.2293,0.2326,0.2341,0.2355,0.2371,0.2392,0.2423,0.2442,0.248,0.2493,0.2539,0.258,0.2653,0.2616,0.2686,0.2623,0.2482,0.2386,0.2208,0.2181,0.2144,0.2119,0.2183,0.2176,0.2171,0.2166,0,0.2257,0.2272,0.2291,0.2324,0.2346,0.2367,0.2391,0.24,0.2439,0.245,0.2478,0.2512,0.2512,0.2408,0.2417,0.242,0.224,0.2363,0.223,0.1757,0.166,0.1622,0.2164,0.2116,0.2121,0.2124,0.2127,0.2129,0.2236,0.2246,0.2285,0.2316,0.2343,0.237,0.2366,0.2387,0.2401,0.239,0.2444,0.2405,0.221,0.2154,0.2132,0.1764,0.1949,0.1615,0.1634,0.1635,0.1482,0.1916,0.1797,0.18,0.1803,0.1805,0.1808,0,0.2228,0.2255,0.228,0.2321,0.2346,0.2362,0.2375,0.2348,0.234,0.2308,0.2308,0.204,0.1806,0.1608,0.118,0.1021,0.1033,0.0943,0.0828,0.0868,0.1268,0.1117,0.0775,0.0775,0.0775,0.0776,0.0776,0.0776,0.2232,0.2263,0.2284,0.2327,0.2346,0.234,0.2335,0.2273,0.2217,0.2033,0.1844,0.1755,0.1338,0.0776,0.0361,0.0354,0.0335,0.0256,0.0409,0.062,0.0684,0.0744,0.0589,0.0142,0.0141,-0.0101,-0.0104,-0.0106]},{"header":{"parameterUnit":"m.s-1","parameterCategory":2,"la1":30.2991,"la2":30.254,"lo1":-89.0895,"lo2":-89.0444,"dy":0.0017,"dx":0.0017,"nx":28,"ny":28,"refTime":"2025-03-07T09:00:00:Z","depth":"0","parameterNumber":3,"parameterNumberName":"V-component_of_CURRENTS"},"data":[0,0,0,0,0,0,0,0,0,0,0,0,0,0,0,0,0,0,0,0,0,0,0,0,0,0,0,0,0,0,0,0,0,0,0,0,0,0,0,0,0,0,0,0,0,0,0,0,0,0,0,0,0,0,0,0,0,0,-0.0274,-0.0274,0,-0.0244,-0.0244,-0.0243,-0.0242,-0.0243,-0.0244,-0.0244,-0.0205,-0.0204,-0.0202,0,0,0,0,0,0,0,0,0,0,0,0,0,-0.0284,-0.0284,-0.0274,-0.0274,-0.0274,-0.0244,-0.0244,-0.0243,-0.0242,-0.0243,-0.0244,-0.0244,-0.0206,-0.0204,-0.0202,0,0,0,0,0,0,0,0,0,0,0,0,0,-0.0267,-0.0284,-0.0274,-0.0272,-0.0271,-0.0244,-0.0244,-0.0243,-0.0242,-0.0243,-0.0244,-0.0245,-0.0206,-0.0204,-0.0202,-0.017,0,0,-0.0194,-0.0193,0,0,0,0,0,0,0,0,-0.0268,-0.0267,-0.0272,-0.0272,-0.0271,-0.025,-0.0233,-0.0219,-0.0242,-0.0251,-0.0244,-0.0245,-0.022,-0.0217,-0.0206,-0.0168,-0.0166,-0.0194,-0.0193,-0.0192,-0.0191,0,0,0,0,0,0,0,-0.0269,-0.0268,-0.026,-0.0272,-0.0272,-0.0256,-0.0255,-0.023,-0.0229,-0.025,-0.0251,-0.025,-0.022,-0.0208,-0.0205,-0.0166,-0.0194,-0.0192,-0.0191,-0.019,-0.0109,-0.0108,0,0,0,0,0,0,-0.0279,-0.0269,-0.0261,-0.0259,-0.0274,-0.0255,-0.0254,-0.0254,-0.023,-0.0227,-0.025,-0.0251,-0.0212,-0.0208,-0.0204,-0.0169,-0.0192,-0.019,-0.0188,-0.0109,-0.0109,-0.0108,0,0,0,0,0,0,-0.0279,-0.0279,-0.0262,-0.0265,-0.0262,-0.0255,-0.0255,-0.0253,-0.0247,-0.023,-0.0227,-0.0247,-0.0212,-0.0207,-0.0181,-0.0167,-0.0189,-0.0186,-0.011,-0.0109,-0.0108,-0.0096,0,0,0,0,0,0,-0.028,-0.0279,-0.028,-0.0266,-0.0263,-0.0248,-0.0254,-0.0252,-0.0246,-0.0247,-0.0226,-0.0223,-0.0213,-0.0185,-0.0179,-0.0164,-0.0185,-0.0111,-0.011,-0.0108,-0.0097,-0.0095,-0.0092,0,0,0,0,0,-0.028,-0.0279,-0.028,-0.0279,-0.0265,-0.0248,-0.0244,-0.024,-0.0246,-0.0239,-0.0224,-0.0224,-0.0172,-0.0182,-0.0175,-0.016,-0.0112,-0.011,-0.0109,-0.0098,-0.0095,-0.0092,0,0,0,0,0,0,-0.0281,-0.0279,-0.028,-0.0278,-0.0265,-0.0249,-0.0243,-0.024,-0.0222,-0.0223,-0.021,-0.0205,-0.0179,-0.0169,-0.0181,-0.0133,-0.0143,-0.014,-0.0138,-0.0134,-0.0132,-0.0136,-0.0183,0,0,0,0,0,-0.0283,-0.0284,-0.0274,-0.0271,-0.0267,-0.0255,-0.0248,-0.0243,-0.0227,-0.0221,-0.0205,-0.0186,-0.0164,-0.0151,-0.0131,-0.01,-0.0083,-0.0087,-0.0084,-0.0082,-0.0081,-0.0057,-0.0052,-0.0102,-0.0102,-0.0102,0,0,-0.0282,-0.0281,-0.0281,-0.0272,-0.0262,-0.0244,-0.0252,-0.024,-0.0222,-0.0218,-0.0187,-0.0176,-0.0155,-0.0123,-0.011,-0.0114,-0.0052,-0.008,-0.0078,-0.0078,-0.0055,-0.005,-0.0045,-0.0101,-0.0101,-0.0102,0,0,-0.0272,-0.028,-0.0271,-0.026,-0.0249,-0.024,-0.0238,-0.0219,-0.0211,-0.018,-0.0175,-0.0156,-0.0118,-0.0101,-0.0087,-0.0057,-0.0042,-0.0052,-0.0038,-0.0014,-0.001,-0.0006,0.005,0.0058,-0.0048,-0.0048,-0.0048,0,-0.0269,-0.0256,-0.0264,-0.0247,-0.0234,-0.0238,-0.0214,-0.0203,-0.0176,-0.0166,-0.017,-0.012,-0.0106,-0.0069,-0.006,-0.0051,-0.0027,-0.0052,-0.0011,-0.0008,-0.0004,0.0052,0.0061,-0.0047,-0.0047,-0.0047,-0.0047,0,-0.0242,-0.0232,-0.0225,-0.0207,-0.0196,-0.0177,-0.0166,-0.0153,-0.0147,-0.0136,-0.0106,-0.0086,-0.006,-0.005,-0.0044,-0.0009,0.0005,-0.0014,-0.0021,0.0002,0.006,0.0069,-0.0046,-0.0046,-0.0046,-0.0047,0,0,-0.0229,-0.021,-0.0205,-0.0191,-0.0171,-0.0159,-0.0135,-0.0112,-0.0101,-0.0081,-0.0056,-0.0025,-0.003,-0.0015,-0.0007,0.0013,0.0069,0.0011,0.0012,0.0064,0.0148,0.016,0.0172,0.0052,0.0053,0.0054,0.0188,0,-0.0199,-0.0165,-0.016,-0.0124,-0.0105,-0.0101,-0.0081,-0.0066,-0.0058,-0.0037,-0.0026,-0.0003,-0.0012,-0.0,0.0019,0.0052,0.009,0.0036,0.012,0.0123,0.0128,0.0181,0.0203,0.0324,0.0198,0.0199,0.02,0,-0.0166,-0.0149,-0.011,-0.0086,-0.0078,-0.0059,-0.0036,-0.0018,-0.0003,0.0004,0.0018,0.002,0.006,0.0039,0.0115,0.0081,0.0119,0.0143,0.0149,0.0158,0.0152,0.0275,0.0346,0.0358,0.0215,0.0214,0.0213,0,-0.0149,-0.0112,-0.0082,-0.007,-0.0045,-0.003,-0.0018,-0.0005,0.0007,0.0027,0.004,0.0068,0.0099,0.0131,0.0185,0.0151,0.0275,0.0234,0.0291,0.0293,0.0328,0.0332,0.0415,0.0294,0.0293,0.0293,0.0293,0,-0.0116,-0.009,-0.0074,-0.0055,-0.0027,-0.0017,0.0008,0.0019,0.0035,0.0058,0.0059,0.0095,0.012,0.0185,0.0215,0.0301,0.0307,0.0313,0.0328,0.0337,0.0339,0.0361,0.036,0.0298,0.0297,0.0296,0.0295,0,-0.0094,-0.0081,-0.0049,-0.0024,-0.0017,0.0002,0.0022,0.0034,0.0049,0.0083,0.0092,0.0137,0.0234,0.0282,0.0366,0.0358,0.0452,0.0454,0.048,0.0493,0.0511,0.051,0.0633,0.0653,0.0525,0.0526,0.0527,0,-0.0072,-0.0056,-0.0032,-0.002,-0.0006,0.0016,0.0026,0.004,0.0053,0.0117,0.0138,0.0237,0.0327,0.0464,0.0501,0.0587,0.0565,0.06,0.052,0.0537,0.0547,0.0546,0.0553,0.0596,0.0597,0.0598,0.0599,0,-0.0037,-0.0036,-0.0019,-0.0001,0.0013,0.003,0.0049,0.0063,0.0091,0.0144,0.0234,0.0318,0.0465,0.0588,0.0679,0.0686,0.0615,0.0623,0.0634,0.061,0.0624,0.0642,0.0503,0.0609,0.0608,0.0608,0.0607,0.0607,-0.0017,-0.0007,0.0001,0.0017,0.0032,0.0047,0.0069,0.0109,0.0165,0.0283,0.033,0.0523,0.0644,0.0795,0.0783,0.076,0.0749,0.0718,0.0723,0.0726,0.0718,0.061,0.072,0.0719,0.0719,0.0719,0.0719,0,-0.0005,-0.0003,0.0017,0.0032,0.0045,0.0049,0.0084,0.0128,0.0223,0.0406,0.0532,0.0786,0.0891,0.0933,0.0922,0.0874,0.0832,0.0832,0.0834,0.0839,0.0749,0.0719,0.084,0.084,0.084,0.084,0.084,0.084,0.0001,0.0006,0.0008,0.0031,0.0046,0.0073,0.0096,0.0197,0.0338,0.0625,0.0854,0.1016,0.1083,0.1053,0.0987,0.0945,0.0944,0.0937,0.0935,0.0855,0.0843,0.0833,0.0803,0.094,0.094,0.1025,0.1026,0.1026]}],[{"header":{"parameterUnit":"m.s-1","parameterCategory":2,"la1":30.2991,"la2":30.254,"lo1":-89.0895,"lo2":-89.0444,"dy":0.0017,"dx":0.0017,"nx":28,"ny":28,"refTime":"2025-03-07T09:00:00:Z","depth":"2","parameterNumber":2,"parameterNumberName":"U-component_of_CURRENTS"},"data":[0,0,0,0,0,0,0,0,0,0,0,0,0,0,0,0,0,0,0,0,0,0,0,0,0,0,0,0,0,0,0,0,0,0,0,0,0,0,0,0,0,0,0,0,0,0,0,0,0,0,0,0,0,0,0,0,0,0,0.101,0.101,0,0.1016,0.1016,0.1016,0.1042,0.1042,0.1042,0.1042,0.1059,0.1059,0.106,0,0,0,0,0,0,0,0,0,0,0,0,0,0.1063,0.1062,0.101,0.101,0.1009,0.1016,0.1016,0.1016,0.1042,0.1042,0.1042,0.1042,0.1059,0.1059,0.106,0,0,0,0,0,0,0,0,0,0,0,0,0,0.1055,0.1062,0.101,0.102,0.1021,0.1015,0.1016,0.1017,0.1041,0.1042,0.1042,0.1043,0.1059,0.1059,0.106,0.1054,0,0,0.1061,0.1061,0,0,0,0,0,0,0,0,0.1055,0.1053,0.1019,0.1019,0.102,0.1025,0.1041,0.1028,0.1041,0.1037,0.1042,0.1043,0.1046,0.1048,0.1053,0.1055,0.1056,0.1061,0.1061,0.1061,0.1061,0,0,0,0,0,0,0,0.1056,0.1053,0.1016,0.1018,0.1019,0.1038,0.1038,0.1039,0.1043,0.1038,0.1039,0.1033,0.1047,0.1052,0.1053,0.1056,0.1061,0.1061,0.1061,0.1061,0.1107,0.1108,0,0,0,0,0,0,0.1045,0.1054,0.1016,0.1016,0.1035,0.1037,0.1036,0.1026,0.1042,0.1044,0.1033,0.1034,0.1052,0.1053,0.1054,0.1089,0.1061,0.1061,0.1061,0.1106,0.1107,0.1108,0,0,0,0,0,0,0.1046,0.1041,0.1015,0.1033,0.103,0.1035,0.1024,0.1026,0.1043,0.1038,0.1041,0.1049,0.1052,0.1054,0.1067,0.1089,0.1061,0.1062,0.1105,0.1106,0.1108,0.1134,0,0,0,0,0,0,0.1047,0.1041,0.1042,0.1031,0.1028,0.1029,0.1023,0.1026,0.1036,0.1039,0.1052,0.1053,0.1053,0.1067,0.1068,0.1089,0.1062,0.1103,0.1105,0.1107,0.1131,0.1136,0.114,0,0,0,0,0,0.1049,0.1048,0.1042,0.1038,0.1025,0.1029,0.1031,0.1038,0.1037,0.1054,0.1056,0.1053,0.108,0.1068,0.1068,0.109,0.1102,0.1105,0.1107,0.113,0.1135,0.114,0,0,0,0,0,0,0.1063,0.1049,0.1043,0.1035,0.1038,0.1033,0.1048,0.1044,0.1059,0.1062,0.1059,0.1061,0.108,0.1083,0.1069,0.111,0.1094,0.1096,0.1111,0.1116,0.112,0.1105,0.1062,0,0,0,0,0,0.1065,0.107,0.1054,0.1052,0.1054,0.1052,0.1057,0.1056,0.106,0.1068,0.1071,0.1079,0.1088,0.11,0.1104,0.1125,0.1143,0.1143,0.1147,0.115,0.114,0.1184,0.1191,0.1116,0.1116,0.1116,0,0,0.1065,0.1063,0.1062,0.1057,0.1062,0.1068,0.1059,0.1068,0.1073,0.1065,0.1084,0.1087,0.1094,0.1116,0.1127,0.1124,0.1188,0.1153,0.1156,0.1143,0.1187,0.1194,0.12,0.1117,0.1117,0.1117,0,0,0.1069,0.1072,0.1074,0.1081,0.1085,0.109,0.1094,0.1092,0.1099,0.1115,0.1105,0.112,0.1143,0.1145,0.1151,0.1181,0.12,0.1192,0.1209,0.1252,0.1258,0.1264,0.1325,0.1336,0.1203,0.1204,0.1204,0,0.1078,0.1067,0.1077,0.1082,0.1084,0.11,0.1097,0.1114,0.1116,0.1117,0.113,0.1154,0.1157,0.1174,0.1183,0.1189,0.1223,0.1189,0.1257,0.1263,0.1268,0.1329,0.1341,0.1205,0.1205,0.1205,0.1205,0,0.107,0.1073,0.1081,0.1094,0.1101,0.1112,0.1118,0.1136,0.1152,0.1158,0.1181,0.1193,0.121,0.1219,0.1209,0.1244,0.1261,0.125,0.1242,0.1277,0.134,0.1352,0.1207,0.1207,0.1206,0.1206,0,0,0.1075,0.1076,0.1082,0.1078,0.1106,0.1105,0.113,0.1144,0.1167,0.119,0.1214,0.1229,0.1239,0.1245,0.1245,0.1276,0.1349,0.128,0.1282,0.1337,0.1468,0.1336,0.1336,0.1355,0.1356,0.1358,0.1507,0,0.1075,0.1069,0.1073,0.1081,0.1078,0.1102,0.1126,0.1142,0.1181,0.1219,0.1236,0.127,0.1252,0.1274,0.13,0.1329,0.1376,0.131,0.1427,0.1431,0.1306,0.1342,0.1178,0.1283,0.1519,0.152,0.1522,0,0.1068,0.1065,0.1057,0.1062,0.1064,0.1085,0.1124,0.1137,0.1196,0.1233,0.1273,0.1299,0.1339,0.133,0.1414,0.1378,0.1421,0.145,0.1457,0.1323,0.1318,0.1281,0.1295,0.1541,0.154,0.1538,0.1537,0,0.1052,0.1056,0.1047,0.1051,0.1066,0.1078,0.1094,0.1145,0.1176,0.1248,0.1303,0.135,0.1407,0.1448,0.1489,0.1473,0.1587,0.1581,0.1512,0.1506,0.1378,0.1355,0.165,0.165,0.165,0.1649,0.1649,0,0.1048,0.1043,0.1047,0.1044,0.1056,0.1062,0.1101,0.1134,0.121,0.1257,0.1308,0.1367,0.144,0.1503,0.1525,0.1543,0.1628,0.1513,0.1525,0.1384,0.136,0.1581,0.1571,0.1655,0.1654,0.1653,0.1652,0,0.1028,0.1034,0.1022,0.1035,0.1048,0.1051,0.111,0.1144,0.122,0.1291,0.1322,0.1425,0.1482,0.1534,0.1624,0.1595,0.162,0.161,0.1438,0.1421,0.1515,0.1505,0.1565,0.1561,0.1558,0.1556,0.1554,0,0.1007,0.1006,0.1011,0.1021,0.1036,0.1057,0.1085,0.115,0.1184,0.1309,0.1333,0.1434,0.1435,0.1504,0.1481,0.1493,0.1575,0.1369,0.1273,0.1495,0.1503,0.1497,0.1491,0.1158,0.1153,0.1149,0.1145,0,0.0977,0.0991,0.0984,0.1013,0.104,0.1058,0.1093,0.1121,0.1191,0.1267,0.1326,0.1335,0.1345,0.1246,0.1246,0.1237,0.1337,0.1277,0.1587,0.1163,0.1111,0.1118,0.1126,0.1107,0.1111,0.1114,0.1116,0.1117,0.0964,0.0956,0.0973,0.0994,0.1032,0.1054,0.1048,0.1075,0.1125,0.1148,0.1215,0.1155,0.1125,0.0988,0.0954,0.0956,0.1074,0.1037,0.1052,0.1071,0.0954,0.0894,0.0832,0.0834,0.0836,0.0838,0.0839,0,0.0944,0.0941,0.0957,0.0976,0.0993,0.1045,0.1051,0.101,0.1008,0.0992,0.0986,0.0832,0.0715,0.0708,0.0618,0.0605,0.0623,0.0596,0.0614,0.0651,0.0684,0.0549,0.032,0.0318,0.0317,0.0316,0,0,0.0932,0.092,0.0918,0.093,0.0962,0.0938,0.0926,0.0892,0.0832,0.0735,0.0665,0.064,0.0635,0.0459,0.0432,0.0357,0.0505,0.0331,0.0743,0.0799,0.0831,0.0928,0.0759,0,0,0,0,0]},{"header":{"parameterUnit":"m.s-1","parameterCategory":2,"la1":30.2991,"la2":30.254,"lo1":-89.0895,"lo2":-89.0444,"dy":0.0017,"dx":0.0017,"nx":28,"ny":28,"refTime":"2025-03-07T09:00:00:Z","depth":"2","parameterNumber":3,"parameterNumberName":"V-component_of_CURRENTS"},"data":[0,0,0,0,0,0,0,0,0,0,0,0,0,0,0,0,0,0,0,0,0,0,0,0,0,0,0,0,0,0,0,0,0,0,0,0,0,0,0,0,0,0,0,0,0,0,0,0,0,0,0,0,0,0,0,0,0,0,0.0156,0.0156,0,0.0155,0.0155,0.0155,0.0146,0.0146,0.0145,0.0145,0.0132,0.0132,0.0131,0,0,0,0,0,0,0,0,0,0,0,0,0,0.014,0.014,0.0156,0.0156,0.0156,0.0155,0.0155,0.0155,0.0146,0.0145,0.0145,0.0145,0.0132,0.0132,0.0131,0,0,0,0,0,0,0,0,0,0,0,0,0,0.0143,0.0141,0.0156,0.0152,0.0151,0.0155,0.0155,0.0155,0.0146,0.0145,0.0145,0.0145,0.0132,0.0132,0.0131,0.0134,0,0,0.013,0.013,0,0,0,0,0,0,0,0,0.0143,0.0144,0.0152,0.0152,0.0152,0.0151,0.0144,0.0148,0.0146,0.0147,0.0145,0.0145,0.0138,0.0137,0.0136,0.0134,0.0133,0.013,0.013,0.013,0.013,0,0,0,0,0,0,0,0.0143,0.0144,0.0155,0.0152,0.0152,0.0147,0.0147,0.0145,0.0143,0.0147,0.0147,0.0148,0.0137,0.0137,0.0136,0.0133,0.013,0.013,0.013,0.013,0.0124,0.0125,0,0,0,0,0,0,0.0145,0.0144,0.0155,0.0155,0.0147,0.0147,0.0147,0.0151,0.0143,0.0142,0.0148,0.0147,0.0137,0.0136,0.0136,0.0142,0.013,0.013,0.013,0.0124,0.0124,0.0125,0,0,0,0,0,0,0.0145,0.0146,0.0155,0.0149,0.015,0.0148,0.0152,0.0151,0.0145,0.0144,0.0143,0.0142,0.0137,0.0136,0.0135,0.0141,0.013,0.0129,0.0124,0.0124,0.0125,0.0152,0,0,0,0,0,0,0.0145,0.0146,0.0145,0.015,0.0151,0.0156,0.0152,0.0151,0.0147,0.0146,0.0139,0.0138,0.0137,0.0135,0.0135,0.014,0.0129,0.0124,0.0124,0.0124,0.0151,0.0153,0.0155,0,0,0,0,0,0.0144,0.0146,0.0145,0.0146,0.0151,0.0157,0.0157,0.0153,0.0146,0.0146,0.0143,0.0138,0.0135,0.0135,0.0134,0.014,0.0124,0.0124,0.0124,0.015,0.0153,0.0155,0,0,0,0,0,0,0.0143,0.0146,0.0145,0.0149,0.0152,0.0155,0.0155,0.0151,0.0148,0.0148,0.014,0.0139,0.0141,0.0134,0.0134,0.0137,0.0128,0.0128,0.0148,0.015,0.0151,0.0158,0.0129,0,0,0,0,0,0.0142,0.0141,0.0147,0.015,0.0152,0.0151,0.0151,0.0152,0.0152,0.015,0.0144,0.014,0.0142,0.014,0.0139,0.0141,0.0143,0.0142,0.0144,0.0145,0.0149,0.0155,0.0159,0.0125,0.0125,0.0125,0,0,0.0143,0.0144,0.0144,0.0149,0.015,0.016,0.015,0.0155,0.0163,0.015,0.0152,0.0147,0.0143,0.0149,0.0148,0.0143,0.0158,0.0146,0.0147,0.015,0.0156,0.0159,0.0162,0.0125,0.0125,0.0125,0,0,0.0152,0.0146,0.0153,0.0156,0.0162,0.0163,0.0163,0.0166,0.0165,0.0168,0.0164,0.016,0.0156,0.0158,0.0159,0.0167,0.0168,0.0164,0.018,0.0186,0.0189,0.0192,0.021,0.0214,0.0165,0.0165,0.0165,0,0.0151,0.0164,0.0156,0.0167,0.0173,0.0165,0.018,0.0179,0.018,0.0183,0.0172,0.017,0.0162,0.0175,0.0179,0.0172,0.0181,0.0174,0.019,0.0192,0.0194,0.0212,0.0216,0.0166,0.0166,0.0166,0.0166,0,0.0171,0.018,0.0184,0.0194,0.0199,0.0209,0.0212,0.0212,0.0205,0.0204,0.0208,0.0198,0.0197,0.0193,0.0189,0.0203,0.0207,0.0193,0.0187,0.02,0.0217,0.0221,0.0168,0.0168,0.0167,0.0167,0,0,0.0169,0.0193,0.0194,0.0208,0.0215,0.0224,0.0234,0.0243,0.0251,0.0241,0.0255,0.0244,0.0234,0.0233,0.0225,0.0227,0.025,0.0219,0.0219,0.0243,0.0279,0.0265,0.0268,0.0243,0.0243,0.0244,0.0289,0,0.0185,0.0214,0.0222,0.0249,0.0263,0.0263,0.0273,0.0279,0.0276,0.0286,0.0275,0.0285,0.0251,0.0258,0.0252,0.0258,0.026,0.024,0.0257,0.0258,0.0249,0.0272,0.0273,0.0312,0.0292,0.0293,0.0293,0,0.0202,0.0219,0.0251,0.028,0.0287,0.0299,0.0315,0.0329,0.0337,0.0335,0.0334,0.0329,0.0339,0.0305,0.031,0.0302,0.029,0.0285,0.0287,0.0267,0.0252,0.0293,0.0319,0.03,0.0299,0.0299,0.0298,0,0.0205,0.0239,0.0265,0.0274,0.0303,0.0316,0.0332,0.0341,0.0361,0.0376,0.0401,0.0386,0.0417,0.0382,0.0366,0.0345,0.0377,0.0344,0.032,0.0319,0.0319,0.0317,0.0341,0.0341,0.0341,0.034,0.034,0,0.0216,0.0237,0.0269,0.0284,0.0314,0.0332,0.0364,0.0373,0.0402,0.0452,0.0434,0.0489,0.044,0.0452,0.0399,0.0383,0.0401,0.0332,0.033,0.0329,0.0328,0.0309,0.0305,0.0342,0.0342,0.0341,0.0341,0,0.0215,0.0236,0.027,0.0306,0.0318,0.0342,0.0393,0.0422,0.0449,0.0522,0.054,0.0586,0.0608,0.0546,0.0523,0.0456,0.0418,0.0403,0.041,0.0406,0.0347,0.0344,0.0379,0.0379,0.0379,0.0379,0.0379,0,0.0218,0.0235,0.0283,0.0308,0.0326,0.0365,0.0398,0.0433,0.0486,0.0599,0.0656,0.0704,0.0749,0.0701,0.0589,0.0488,0.046,0.0423,0.0364,0.0357,0.0351,0.0348,0.0345,0.0385,0.0385,0.0385,0.0385,0,0.0224,0.024,0.0271,0.032,0.0361,0.0414,0.0479,0.0528,0.0608,0.0689,0.0832,0.0879,0.0845,0.0767,0.0616,0.0538,0.0428,0.0419,0.043,0.0364,0.0362,0.0357,0.0353,0.0385,0.0385,0.0385,0.0385,0.0385,0.0227,0.025,0.0295,0.0346,0.0393,0.0475,0.0543,0.0631,0.074,0.0879,0.094,0.0985,0.0897,0.0687,0.0591,0.0452,0.0449,0.038,0.038,0.038,0.0362,0.0359,0.0379,0.0379,0.0378,0.0378,0.0378,0,0.0237,0.0276,0.0321,0.0403,0.0474,0.0489,0.0609,0.0696,0.085,0.0913,0.1022,0.0913,0.083,0.0695,0.0501,0.0405,0.0385,0.036,0.0361,0.0362,0.0363,0.0343,0.0355,0.0355,0.0355,0.0355,0,0,0.0248,0.0298,0.0333,0.0462,0.0525,0.0656,0.0734,0.0828,0.0886,0.0961,0.0947,0.096,0.0809,0.0662,0.0553,0.0452,0.0419,0.042,0.0448,0.0465,0.0466,0.0385,0.0356,0,0,0,0,0]}],[{"header":{"parameterUnit":"m.s-1","parameterCategory":2,"la1":30.2991,"la2":30.254,"lo1":-89.0895,"lo2":-89.0444,"dy":0.0017,"dx":0.0017,"nx":28,"ny":28,"refTime":"2025-03-07T09:00:00:Z","depth":"4","parameterNumber":2,"parameterNumberName":"U-component_of_CURRENTS"},"data":[0,0,0,0,0,0,0,0,0,0,0,0,0,0,0,0,0,0,0,0,0,0,0,0,0,0,0,0,0,0,0,0,0,0,0,0,0,0,0,0,0,0,0,0,0,0,0,0,0,0,0,0,0,0,0,0,0,0,0.0376,0.0376,0,0.0402,0.0403,0.0403,0.0432,0.0432,0.0432,0.0433,0.0474,0.0475,0.0476,0,0,0,0,0,0,0,0,0,0,0,0,0,0.0364,0.0364,0.0376,0.0376,0.0377,0.0402,0.0403,0.0403,0.0432,0.0432,0.0432,0.0433,0.0474,0.0475,0.0476,0,0,0,0,0,0,0,0,0,0,0,0,0,0.0379,0.0364,0.0376,0.0393,0.0395,0.0402,0.0403,0.0403,0.0432,0.0432,0.0432,0.0433,0.0474,0.0475,0.0476,0.0475,0,0,0.048,0.0481,0,0,0,0,0,0,0,0,0.0378,0.0379,0.039,0.0392,0.0394,0.0413,0.0414,0.0428,0.0431,0.0419,0.0433,0.0433,0.0454,0.0457,0.0463,0.0477,0.0479,0.048,0.0481,0.0481,0.0482,0,0,0,0,0,0,0,0.0377,0.0378,0.0388,0.039,0.0392,0.0404,0.0406,0.0417,0.0435,0.042,0.0422,0.0423,0.0455,0.0461,0.0464,0.0479,0.048,0.0481,0.0482,0.0482,0.0541,0.0542,0,0,0,0,0,0,0.037,0.0377,0.0387,0.0388,0.0385,0.0403,0.0406,0.0407,0.0435,0.0439,0.0422,0.0424,0.0459,0.0462,0.0465,0.0505,0.0481,0.0483,0.0483,0.054,0.0541,0.0542,0,0,0,0,0,0,0.0369,0.037,0.0386,0.0382,0.0385,0.0403,0.0404,0.0408,0.043,0.0436,0.0441,0.0443,0.0459,0.0464,0.0484,0.0505,0.0483,0.0484,0.0539,0.0541,0.0542,0.0558,0,0,0,0,0,0,0.0369,0.037,0.0377,0.0382,0.0385,0.0401,0.0404,0.0408,0.0428,0.0431,0.0455,0.0458,0.046,0.0482,0.0486,0.0506,0.0485,0.0538,0.054,0.0541,0.0556,0.056,0.0562,0,0,0,0,0,0.0368,0.037,0.0377,0.0379,0.0391,0.0401,0.0405,0.0419,0.0429,0.0441,0.0454,0.0458,0.0495,0.0484,0.0487,0.0509,0.0538,0.0539,0.0541,0.0555,0.0559,0.0562,0,0,0,0,0,0,0.0368,0.0373,0.0381,0.0385,0.0399,0.0406,0.0415,0.0429,0.0449,0.0453,0.0463,0.0468,0.0497,0.0499,0.0487,0.0531,0.0519,0.0522,0.0529,0.0532,0.0535,0.0527,0.0486,0,0,0,0,0,0.037,0.0372,0.0384,0.0388,0.0395,0.041,0.0419,0.0429,0.0442,0.0453,0.0468,0.0485,0.0505,0.0515,0.053,0.0549,0.0552,0.0567,0.057,0.0572,0.0568,0.0584,0.0587,0.0548,0.0548,0.0548,0,0,0.0367,0.0373,0.0373,0.0388,0.0398,0.041,0.0418,0.0431,0.0447,0.0453,0.0481,0.0498,0.0513,0.0537,0.0551,0.0542,0.0589,0.0575,0.0576,0.0571,0.0586,0.059,0.0593,0.0549,0.0549,0.0549,0,0,0.036,0.0372,0.0373,0.0386,0.0404,0.0415,0.0424,0.0442,0.046,0.0486,0.0496,0.0519,0.0552,0.056,0.057,0.0597,0.0607,0.0613,0.0619,0.0634,0.0637,0.064,0.0663,0.0667,0.0612,0.0612,0.0612,0,0.0365,0.0363,0.0376,0.0385,0.0395,0.042,0.0429,0.0449,0.0474,0.0485,0.05,0.0545,0.0561,0.0582,0.0597,0.0603,0.0618,0.0603,0.0637,0.0639,0.0642,0.0665,0.067,0.0613,0.0613,0.0612,0.0612,0,0.0359,0.0363,0.0365,0.0385,0.04,0.0411,0.0437,0.0459,0.0488,0.0506,0.0542,0.0563,0.0587,0.0604,0.0612,0.064,0.0648,0.0641,0.0625,0.0647,0.067,0.0675,0.0614,0.0614,0.0613,0.0613,0,0,0.0365,0.0361,0.0367,0.0367,0.0401,0.0408,0.0439,0.0467,0.0484,0.0523,0.0544,0.0587,0.0602,0.0614,0.0628,0.0644,0.0684,0.0655,0.0655,0.0673,0.0731,0.0654,0.0651,0.0687,0.0687,0.0688,0.0745,0,0.0364,0.0364,0.0371,0.0378,0.0379,0.0409,0.0429,0.0458,0.0497,0.0524,0.0554,0.0585,0.0606,0.0623,0.0644,0.0681,0.0695,0.067,0.0711,0.0712,0.0636,0.0653,0.069,0.0748,0.0749,0.075,0.0751,0,0.0367,0.0361,0.0363,0.0359,0.0365,0.038,0.0416,0.0434,0.0479,0.0511,0.0549,0.0578,0.0623,0.0627,0.0697,0.0686,0.0709,0.0728,0.073,0.0651,0.0642,0.072,0.0759,0.0759,0.0758,0.0757,0.0757,0,0.036,0.036,0.0357,0.0361,0.0367,0.0378,0.0389,0.0431,0.0445,0.0504,0.0529,0.0585,0.0621,0.0662,0.072,0.0718,0.0782,0.0781,0.0727,0.0723,0.0769,0.0765,0.0806,0.0805,0.0805,0.0805,0.0805,0,0.0355,0.0353,0.0351,0.0348,0.0344,0.0358,0.0372,0.0398,0.0431,0.0449,0.0517,0.0544,0.0633,0.068,0.0722,0.0743,0.0788,0.0728,0.0727,0.0778,0.0774,0.0773,0.0769,0.0807,0.0807,0.0806,0.0806,0,0.0338,0.0345,0.0332,0.0332,0.0337,0.0332,0.0347,0.035,0.0401,0.043,0.0449,0.053,0.0607,0.0675,0.0749,0.0738,0.0767,0.0752,0.0811,0.0814,0.0702,0.0698,0.071,0.0708,0.0706,0.0704,0.0703,0,0.0325,0.0317,0.0311,0.0297,0.0296,0.0298,0.0293,0.0334,0.0346,0.0415,0.0421,0.0503,0.0562,0.0619,0.0685,0.0748,0.0733,0.0735,0.0707,0.0691,0.069,0.069,0.0688,0.0699,0.0699,0.0698,0.0698,0,0.0291,0.0296,0.0278,0.024,0.0235,0.0217,0.0223,0.0239,0.0291,0.035,0.0396,0.0438,0.0511,0.0585,0.063,0.0667,0.0731,0.0714,0.0718,0.0692,0.0679,0.0679,0.0681,0.0691,0.0692,0.0692,0.0693,0,0.0265,0.0241,0.0213,0.0179,0.0155,0.0124,0.0148,0.017,0.0196,0.0301,0.0316,0.0416,0.0501,0.0541,0.0583,0.0615,0.0611,0.0583,0.0594,0.0603,0.0539,0.0504,0.046,0,0,0,0,0,0.0235,0.0197,0.0147,0.0102,0.0067,0.0057,0.0083,0.0119,0.0213,0.0231,0.0275,0.0346,0.0414,0.046,0.0478,0.0526,0.0603,0.0539,0.0572,0.0652,0.066,0.0594,0,0,0,0,0,0,0.0213,0.017,0.0131,0.0036,-0.0007,-0.0044,-0.0024,0.0038,0.0067,0.0174,0.0228,0.0295,0.0385,0.0408,0.0464,0.0478,0.0483,0.0603,0.0601,0.0647,0.0655,0.0661,0.0596,0,0,0,0,0]},{"header":{"parameterUnit":"m.s-1","parameterCategory":2,"la1":30.2991,"la2":30.254,"lo1":-89.0895,"lo2":-89.0444,"dy":0.0017,"dx":0.0017,"nx":28,"ny":28,"refTime":"2025-03-07T09:00:00:Z","depth":"4","parameterNumber":3,"parameterNumberName":"V-component_of_CURRENTS"},"data":[0,0,0,0,0,0,0,0,0,0,0,0,0,0,0,0,0,0,0,0,0,0,0,0,0,0,0,0,0,0,0,0,0,0,0,0,0,0,0,0,0,0,0,0,0,0,0,0,0,0,0,0,0,0,0,0,0,0,0.0201,0.0201,0,0.0209,0.021,0.021,0.022,0.022,0.022,0.022,0.0227,0.0227,0.0227,0,0,0,0,0,0,0,0,0,0,0,0,0,0.0189,0.0189,0.0201,0.0201,0.0201,0.0209,0.021,0.021,0.022,0.022,0.022,0.022,0.0227,0.0227,0.0227,0,0,0,0,0,0,0,0,0,0,0,0,0,0.0196,0.0189,0.0201,0.0207,0.0207,0.0209,0.021,0.021,0.022,0.022,0.022,0.022,0.0227,0.0227,0.0227,0.0225,0,0,0.0228,0.0228,0,0,0,0,0,0,0,0,0.0196,0.0197,0.0206,0.0206,0.0207,0.0213,0.0208,0.0215,0.022,0.0216,0.022,0.022,0.0222,0.0222,0.0225,0.0226,0.0226,0.0228,0.0228,0.0228,0.0228,0,0,0,0,0,0,0,0.0195,0.0196,0.0205,0.0206,0.0206,0.0207,0.0208,0.0209,0.0218,0.0216,0.0217,0.0216,0.0222,0.0224,0.0225,0.0226,0.0228,0.0228,0.0228,0.0228,0.0223,0.0223,0,0,0,0,0,0,0.0193,0.0196,0.0205,0.0205,0.0201,0.0207,0.0209,0.0211,0.0218,0.0219,0.0216,0.0217,0.0224,0.0225,0.0225,0.0232,0.0228,0.0228,0.0228,0.0223,0.0223,0.0223,0,0,0,0,0,0,0.0193,0.0194,0.0204,0.02,0.0201,0.0207,0.021,0.0212,0.0214,0.0218,0.022,0.0218,0.0224,0.0225,0.0228,0.0232,0.0228,0.0228,0.0224,0.0223,0.0223,0.024,0,0,0,0,0,0,0.0193,0.0194,0.0194,0.02,0.0201,0.0208,0.021,0.0212,0.0214,0.0215,0.022,0.0221,0.0224,0.0227,0.0228,0.0232,0.0228,0.0224,0.0224,0.0223,0.024,0.0241,0.0241,0,0,0,0,0,0.0192,0.0195,0.0195,0.0195,0.0202,0.0208,0.0209,0.0214,0.0214,0.0216,0.0219,0.0221,0.0225,0.0227,0.0228,0.0233,0.0224,0.0224,0.0223,0.024,0.0241,0.0241,0,0,0,0,0,0,0.0192,0.0197,0.0196,0.0201,0.0203,0.0209,0.0213,0.0213,0.0217,0.022,0.0221,0.0222,0.0225,0.0223,0.0226,0.0228,0.0224,0.0223,0.0236,0.0237,0.0237,0.0249,0.0228,0,0,0,0,0,0.0191,0.0196,0.0198,0.0203,0.0204,0.0207,0.0209,0.0213,0.0217,0.0219,0.0219,0.022,0.0223,0.0225,0.0226,0.0229,0.0224,0.023,0.023,0.0231,0.0239,0.0237,0.0239,0.0221,0.0221,0.0221,0,0,0.0192,0.0196,0.0198,0.0203,0.0206,0.0212,0.0209,0.0216,0.0222,0.0219,0.0225,0.0223,0.0223,0.0228,0.0229,0.0228,0.023,0.023,0.0231,0.0239,0.0237,0.0239,0.024,0.0221,0.0221,0.0221,0,0,0.0199,0.02,0.0206,0.021,0.0216,0.0218,0.0219,0.0222,0.0226,0.023,0.0229,0.023,0.0229,0.0235,0.0237,0.0239,0.0232,0.0233,0.0249,0.0247,0.0249,0.025,0.0235,0.0235,0.0235,0.0235,0.0235,0,0.0197,0.0207,0.0208,0.0216,0.0222,0.022,0.0229,0.0232,0.0235,0.0242,0.0234,0.0239,0.0235,0.0249,0.0249,0.0242,0.0234,0.0249,0.0249,0.025,0.0252,0.0236,0.0236,0.0236,0.0236,0.0235,0.0235,0,0.0209,0.0217,0.0222,0.0231,0.0238,0.0246,0.025,0.0254,0.0254,0.0257,0.0266,0.0261,0.0267,0.026,0.0257,0.0265,0.0253,0.025,0.0251,0.0255,0.0238,0.0237,0.0237,0.0236,0.0236,0.0236,0,0,0.0202,0.0225,0.0227,0.0239,0.0248,0.0258,0.0268,0.028,0.0296,0.0288,0.0304,0.0301,0.0299,0.03,0.0293,0.0288,0.0282,0.0274,0.0273,0.0265,0.0267,0.0247,0.0244,0.028,0.028,0.028,0.0248,0,0.0209,0.0229,0.024,0.0262,0.0272,0.0282,0.0296,0.0309,0.0315,0.0328,0.0322,0.0335,0.0314,0.0321,0.0312,0.0295,0.0284,0.0291,0.026,0.0259,0.0245,0.0244,0.0281,0.0247,0.0247,0.0247,0.0247,0,0.0213,0.0228,0.0251,0.0286,0.0293,0.031,0.034,0.0355,0.0372,0.0379,0.0385,0.038,0.0377,0.0356,0.0328,0.0333,0.0303,0.0282,0.028,0.0258,0.0238,0.0244,0.0246,0.0246,0.0247,0.0247,0.0247,0,0.0209,0.0238,0.026,0.0269,0.0303,0.0324,0.0347,0.0372,0.0399,0.0416,0.0433,0.0423,0.0423,0.0389,0.0339,0.0337,0.0298,0.0292,0.0242,0.0239,0.0261,0.026,0.027,0.027,0.027,0.0271,0.0271,0,0.0209,0.0228,0.0264,0.0277,0.0318,0.0339,0.0388,0.0406,0.0443,0.0477,0.0465,0.0477,0.0432,0.0401,0.0351,0.0292,0.0307,0.0247,0.0234,0.0266,0.0266,0.026,0.0259,0.0269,0.027,0.027,0.027,0,0.02,0.022,0.0252,0.0297,0.0317,0.0349,0.0423,0.0462,0.0486,0.0529,0.0537,0.0523,0.0482,0.0425,0.0364,0.0313,0.0258,0.0231,0.0261,0.025,0.0196,0.0196,0.018,0.0179,0.0178,0.0178,0.0177,0,0.0197,0.021,0.0267,0.03,0.0326,0.0382,0.043,0.0479,0.0521,0.0552,0.057,0.0544,0.0522,0.0416,0.0352,0.0256,0.0238,0.0202,0.0206,0.0199,0.0188,0.019,0.0191,0.0176,0.0176,0.0175,0.0175,0,0.0195,0.0216,0.0247,0.031,0.0368,0.0433,0.0499,0.0526,0.0578,0.0602,0.0596,0.0545,0.0493,0.041,0.0333,0.0263,0.0225,0.0194,0.0195,0.0199,0.0194,0.0184,0.0187,0.0173,0.0173,0.0173,0.0173,0,0.0199,0.0221,0.0268,0.0326,0.0397,0.0463,0.0498,0.0546,0.0586,0.0612,0.0603,0.055,0.0523,0.0413,0.0342,0.0272,0.0255,0.0224,0.0223,0.0225,0.0246,0.0247,0.0234,0,0,0,0,0,0.0204,0.0235,0.0286,0.0355,0.0423,0.047,0.0539,0.057,0.0607,0.0605,0.0606,0.0556,0.0453,0.041,0.0336,0.0325,0.024,0.0235,0.0203,0.0158,0.0161,0.0175,0,0,0,0,0,0,0.0211,0.0255,0.0282,0.0368,0.042,0.0504,0.0549,0.0576,0.0574,0.0589,0.0536,0.0526,0.0428,0.0495,0.0331,0.0312,0.0278,0.0196,0.0194,0.0156,0.0159,0.0161,0.0177,0,0,0,0,0]}]]